User: anonymous
Location: Goodsell Observatory
(44.4617°N, 93.1522°W)
Time: 06:18:17
(UTC-05:00)
Language:

HST - Orbit

View from above orbital plane
View from above orbital plane
View from above satellite
View from above satellite

Ground track
Ground track

The orbit data is extracted from the following two-line orbital elements,

1 20580U 90037B   14205.12058066  .00000728  00000-0  37512-4 0   613
2 20580 028.4699 154.3174 0003018 324.2449 139.2047 15.05551574130288
Epoch (UTC): 24 July 2014 02:53:38
Eccentricity: 0.0003018
inclination: 28.4699°
perigee height: 548 km
apogee height: 552 km
right ascension of ascending node: 154.3174°
argument of perigee: 324.2449°
revolutions per day: 15.05551574
mean anomaly at epoch: 139.2047°
orbit number at epoch: 13028

The dashed part of the orbit path shows where the satellite is in the earth's shadow,  

DLR